Time,TemperatureF,DewpointF,PressureIn,WindDirection,WindDirectionDegrees,WindSpeedMPH,WindSpeedGustMPH,Humidity,HourlyPrecipIn,Conditions,Clouds,dailyrainin,SoftwareType,DateUTC
2013-02-12 00:01:00,30.0,12.0,-100.00,SE,144,7.0,9.0,47,-99.99,,,-99.99,,2013-02-12 08:01:00,
2013-02-12 00:11:00,30.0,14.0,-100.00,ESE,120,6.0,7.0,50,-99.99,,,-99.99,,2013-02-12 08:11:00,
2013-02-12 00:21:00,33.0,11.0,-100.00,ESE,112,5.0,8.0,39,-99.99,,,-99.99,,2013-02-12 08:21:00,
2013-02-12 00:31:00,32.0,10.0,-100.00,ESE,123,5.0,9.0,40,-99.99,,,-99.99,,2013-02-12 08:31:00,
2013-02-12 00:41:00,30.0,12.0,-100.00,SE,134,6.0,10.0,47,-99.99,,,-99.99,,2013-02-12 08:41:00,
2013-02-12 00:52:00,30.0,11.0,-100.00,SE,138,5.0,9.0,45,-99.99,,,-99.99,,2013-02-12 08:52:00,
2013-02-12 01:01:00,31.0,12.0,-100.00,ESE,121,6.0,11.0,44,-99.99,,,-99.99,,2013-02-12 09:01:00,
2013-02-12 01:11:00,31.0,11.0,-100.00,SE,127,6.0,8.0,43,-99.99,,,-99.99,,2013-02-12 09:11:00,
2013-02-12 01:21:00,32.0,10.0,-100.00,SE,142,7.0,10.0,39,-99.99,,,-99.99,,2013-02-12 09:21:00,
2013-02-12 01:31:00,32.0,9.0,-100.00,SE,127,6.0,11.0,38,-99.99,,,-99.99,,2013-02-12 09:31:00,
2013-02-12 01:41:00,33.0,9.0,-100.00,SE,127,9.0,14.0,36,-99.99,,,-99.99,,2013-02-12 09:41:00,
2013-02-12 01:51:00,33.0,9.0,-100.00,SE,127,9.0,14.0,36,-99.99,,,-99.99,,2013-02-12 09:51:00,
2013-02-12 02:01:00,30.0,12.0,-100.00,SE,129,8.0,12.0,46,-99.99,,,-99.99,,2013-02-12 10:01:00,
2013-02-12 02:11:00,31.0,11.0,-100.00,ESE,121,6.0,9.0,43,-99.99,,,-99.99,,2013-02-12 10:11:00,
2013-02-12 02:21:00,31.0,10.0,-100.00,ESE,109,6.0,7.0,41,-99.99,,,-99.99,,2013-02-12 10:21:00,
2013-02-12 02:31:00,31.0,11.0,-100.00,ESE,115,7.0,9.0,42,-99.99,,,-99.99,,2013-02-12 10:31:00,
2013-02-12 02:43:00,31.0,10.0,-100.00,ESE,114,7.0,9.0,41,-99.99,,,-99.99,,2013-02-12 10:43:00,
2013-02-12 02:51:00,30.0,10.0,-100.00,SE,129,8.0,9.0,43,-99.99,,,-99.99,,2013-02-12 10:51:00,
2013-02-12 03:01:00,29.0,12.0,-100.00,SE,132,8.0,11.0,49,-99.99,,,-99.99,,2013-02-12 11:01:00,
2013-02-12 03:11:00,29.0,12.0,-100.00,ESE,121,7.0,8.0,48,-99.99,,,-99.99,,2013-02-12 11:11:00,
2013-02-12 03:21:00,30.0,12.0,-100.00,SE,129,8.0,9.0,46,-99.99,,,-99.99,,2013-02-12 11:21:00,
2013-02-12 03:31:00,30.0,12.0,-100.00,SE,129,8.0,9.0,46,-99.99,,,-99.99,,2013-02-12 11:31:00,
2013-02-12 03:41:00,31.0,11.0,-100.00,SE,127,5.0,7.0,42,-99.99,,,-99.99,,2013-02-12 11:41:00,
2013-02-12 03:52:00,28.0,12.0,-100.00,SE,140,7.0,10.0,51,-99.99,,,-99.99,,2013-02-12 11:52:00,
2013-02-12 04:01:00,28.0,12.0,-100.00,SE,140,7.0,10.0,51,-99.99,,,-99.99,,2013-02-12 12:01:00,
2013-02-12 04:11:00,26.0,13.0,-100.00,SE,138,7.0,10.0,58,-99.99,,,-99.99,,2013-02-12 12:11:00,
2013-02-12 04:21:00,26.0,14.0,-100.00,SE,139,6.0,9.0,59,-99.99,,,-99.99,,2013-02-12 12:21:00,
2013-02-12 04:32:00,27.0,14.0,-100.00,SE,134,7.0,9.0,57,-99.99,,,-99.99,,2013-02-12 12:32:00,
2013-02-12 04:42:00,28.0,14.0,-100.00,ESE,120,6.0,7.0,55,-99.99,,,-99.99,,2013-02-12 12:42:00,
2013-02-12 04:52:00,27.0,13.0,-100.00,SE,130,7.0,11.0,56,-99.99,,,-99.99,,2013-02-12 12:52:00,
2013-02-12 05:01:00,27.0,13.0,-100.00,ESE,120,6.0,7.0,55,-99.99,,,-99.99,,2013-02-12 13:01:00,
2013-02-12 05:11:00,27.0,13.0,-100.00,ESE,117,6.0,6.0,56,-99.99,,,-99.99,,2013-02-12 13:11:00,
2013-02-12 05:22:00,27.0,13.0,-100.00,ESE,118,6.0,8.0,56,-99.99,,,-99.99,,2013-02-12 13:22:00,
2013-02-12 05:31:00,28.0,14.0,-100.00,SE,131,5.0,6.0,54,-99.99,,,-99.99,,2013-02-12 13:31:00,
2013-02-12 05:42:00,27.0,13.0,-100.00,SE,134,6.0,8.0,55,-99.99,,,-99.99,,2013-02-12 13:42:00,
2013-02-12 05:51:00,26.0,14.0,-100.00,SE,139,6.0,8.0,59,-99.99,,,-99.99,,2013-02-12 13:51:00,
2013-02-12 06:01:00,27.0,14.0,-100.00,SE,127,6.0,7.0,57,-99.99,,,-99.99,,2013-02-12 14:01:00,
2013-02-12 06:11:00,28.0,13.0,-100.00,SE,129,4.0,5.0,52,-99.99,,,-99.99,,2013-02-12 14:11:00,
2013-02-12 06:21:00,29.0,13.0,-100.00,SE,133,5.0,6.0,50,-99.99,,,-99.99,,2013-02-12 14:21:00,
2013-02-12 06:31:00,27.0,13.0,-100.00,SE,136,7.0,10.0,56,-99.99,,,-99.99,,2013-02-12 14:31:00,
2013-02-12 06:41:00,26.0,13.0,-100.00,SE,136,7.0,10.0,57,-99.99,,,-99.99,,2013-02-12 14:41:00,
2013-02-12 06:52:00,26.0,13.0,-100.00,SE,140,9.0,11.0,57,-99.99,,,-99.99,,2013-02-12 14:52:00,
2013-02-12 07:01:00,26.0,13.0,-100.00,SE,137,7.0,10.0,58,-99.99,,,-99.99,,2013-02-12 15:01:00,
2013-02-12 07:11:00,26.0,13.0,-100.00,SE,137,8.0,10.0,57,-99.99,,,-99.99,,2013-02-12 15:11:00,
2013-02-12 07:21:00,26.0,12.0,-100.00,SE,135,9.0,12.0,56,-99.99,,,-99.99,,2013-02-12 15:21:00,
2013-02-12 07:32:00,28.0,13.0,-100.00,SE,127,8.0,12.0,52,-99.99,,,-99.99,,2013-02-12 15:32:00,
2013-02-12 07:41:00,29.0,13.0,-100.00,ESE,119,6.0,7.0,50,-99.99,,,-99.99,,2013-02-12 15:41:00,
2013-02-12 07:52:00,31.0,13.0,-100.00,ESE,102,5.0,6.0,46,-99.99,,,-99.99,,2013-02-12 15:52:00,
2013-02-12 08:01:00,32.0,13.0,-100.00,ESE,109,4.0,5.0,44,-99.99,,,-99.99,,2013-02-12 16:01:00,
2013-02-12 08:11:00,33.0,13.0,-100.00,SE,126,4.0,6.0,43,-99.99,,,-99.99,,2013-02-12 16:11:00,
2013-02-12 08:22:00,38.0,11.0,-100.00,SE,132,2.0,5.0,33,-99.99,,,-99.99,,2013-02-12 16:22:00,
2013-02-12 08:31:00,38.0,11.0,-100.00,SE,132,2.0,5.0,33,-99.99,,,-99.99,,2013-02-12 16:31:00,
2013-02-12 08:41:00,39.0,12.0,-100.00,SSE,147,2.0,4.0,33,-99.99,,,-99.99,,2013-02-12 16:41:00,
2013-02-12 08:51:00,43.0,11.0,-100.00,West,269,2.0,5.0,27,-99.99,,,-99.99,,2013-02-12 16:51:00,
2013-02-12 09:01:00,43.0,11.0,-100.00,West,269,2.0,5.0,27,-99.99,,,-99.99,,2013-02-12 17:01:00,
2013-02-12 09:11:00,44.0,7.0,-100.00,NNW,340,3.0,7.0,21,-99.99,,,-99.99,,2013-02-12 17:11:00,
2013-02-12 09:21:00,45.0,8.0,-100.00,ENE,73,3.0,8.0,22,-99.99,,,-99.99,,2013-02-12 17:21:00,
2013-02-12 09:31:00,46.0,7.0,-100.00,East,85,3.0,7.0,20,-99.99,,,-99.99,,2013-02-12 17:31:00,
2013-02-12 09:41:00,46.0,7.0,-100.00,ESE,108,5.0,10.0,20,-99.99,,,-99.99,,2013-02-12 17:41:00,
2013-02-12 09:52:00,45.0,6.0,-100.00,ESE,104,8.0,12.0,20,-99.99,,,-99.99,,2013-02-12 17:52:00,
2013-02-12 10:01:00,46.0,7.0,-100.00,East,95,5.0,11.0,20,-99.99,,,-99.99,,2013-02-12 18:01:00,
2013-02-12 10:11:00,47.0,8.0,-100.00,ENE,74,6.0,10.0,20,-99.99,,,-99.99,,2013-02-12 18:11:00,
2013-02-12 10:22:00,48.0,10.0,-100.00,West,262,4.0,11.0,21,-99.99,,,-99.99,,2013-02-12 18:22:00,
2013-02-12 10:31:00,47.0,10.0,-100.00,WNW,296,6.0,11.0,22,-99.99,,,-99.99,,2013-02-12 18:31:00,
2013-02-12 10:41:00,47.0,10.0,-100.00,WNW,296,6.0,11.0,22,-99.99,,,-99.99,,2013-02-12 18:41:00,
2013-02-12 10:51:00,46.0,9.0,-100.00,WNW,285,6.0,11.0,22,-99.99,,,-99.99,,2013-02-12 18:51:00,
2013-02-12 11:01:00,46.0,9.0,-100.00,WNW,283,6.0,12.0,22,-99.99,,,-99.99,,2013-02-12 19:01:00,
2013-02-12 11:11:00,47.0,9.0,-100.00,WNW,298,7.0,11.0,21,-99.99,,,-99.99,,2013-02-12 19:11:00,
2013-02-12 11:21:00,47.0,9.0,-100.00,WNW,300,6.0,10.0,21,-99.99,,,-99.99,,2013-02-12 19:21:00,
2013-02-12 11:31:00,48.0,10.0,-100.00,West,280,5.0,9.0,21,-99.99,,,-99.99,,2013-02-12 19:31:00,
2013-02-12 11:41:00,48.0,12.0,-100.00,WNW,283,7.0,11.0,23,-99.99,,,-99.99,,2013-02-12 19:41:00,
2013-02-12 11:51:00,48.0,13.0,-100.00,WNW,294,8.0,13.0,24,-99.99,,,-99.99,,2013-02-12 19:51:00,
2013-02-12 12:01:00,49.0,14.0,-100.00,WNW,290,8.0,11.0,24,-99.99,,,-99.99,,2013-02-12 20:01:00,
2013-02-12 12:11:00,49.0,13.0,-100.00,WNW,297,8.0,12.0,23,-99.99,,,-99.99,,2013-02-12 20:11:00,
2013-02-12 12:21:00,49.0,13.0,-100.00,NW,310,7.0,16.0,23,-99.99,,,-99.99,,2013-02-12 20:21:00,
2013-02-12 12:31:00,49.0,13.0,-100.00,NW,310,7.0,16.0,23,-99.99,,,-99.99,,2013-02-12 20:31:00,
2013-02-12 12:41:00,49.0,13.0,-100.00,NW,310,7.0,16.0,23,-99.99,,,-99.99,,2013-02-12 20:41:00,
2013-02-12 12:51:00,50.0,14.0,-100.00,NW,316,9.0,16.0,23,-99.99,,,-99.99,,2013-02-12 20:51:00,
2013-02-12 13:01:00,50.0,14.0,-100.00,NW,304,9.0,15.0,23,-99.99,,,-99.99,,2013-02-12 21:01:00,
2013-02-12 13:11:00,50.0,14.0,-100.00,NW,311,8.0,13.0,23,-99.99,,,-99.99,,2013-02-12 21:11:00,
2013-02-12 13:21:00,49.0,14.0,-100.00,WNW,292,11.0,18.0,24,-99.99,,,-99.99,,2013-02-12 21:21:00,
2013-02-12 13:31:00,50.0,16.0,-100.00,NW,305,10.0,18.0,25,-99.99,,,-99.99,,2013-02-12 21:31:00,
2013-02-12 13:41:00,49.0,15.0,-100.00,NW,322,10.0,16.0,25,-99.99,,,-99.99,,2013-02-12 21:41:00,
2013-02-12 13:51:00,50.0,16.0,-100.00,NW,317,10.0,15.0,25,-99.99,,,-99.99,,2013-02-12 21:51:00,
2013-02-12 14:01:00,50.0,16.0,-100.00,NW,304,10.0,21.0,26,-99.99,,,-99.99,,2013-02-12 22:01:00,
2013-02-12 14:12:00,49.0,16.0,-100.00,NW,305,10.0,17.0,26,-99.99,,,-99.99,,2013-02-12 22:12:00,
2013-02-12 14:21:00,49.0,16.0,-100.00,WNW,302,12.0,17.0,27,-99.99,,,-99.99,,2013-02-12 22:21:00,
2013-02-12 14:31:00,50.0,17.0,-100.00,WNW,303,12.0,18.0,27,-99.99,,,-99.99,,2013-02-12 22:31:00,
2013-02-12 14:41:00,49.0,17.0,-100.00,NW,304,9.0,15.0,28,-99.99,,,-99.99,,2013-02-12 22:41:00,
2013-02-12 14:51:00,50.0,18.0,-100.00,WNW,295,10.0,17.0,28,-99.99,,,-99.99,,2013-02-12 22:51:00,
2013-02-12 15:01:00,50.0,18.0,-100.00,WNW,300,10.0,15.0,28,-99.99,,,-99.99,,2013-02-12 23:01:00,
2013-02-12 15:11:00,50.0,17.0,-100.00,WNW,298,11.0,17.0,27,-99.99,,,-99.99,,2013-02-12 23:11:00,
2013-02-12 15:21:00,50.0,17.0,-100.00,West,281,8.0,14.0,27,-99.99,,,-99.99,,2013-02-12 23:21:00,
2013-02-12 15:31:00,50.0,17.0,-100.00,West,281,8.0,14.0,27,-99.99,,,-99.99,,2013-02-12 23:31:00,
2013-02-12 15:41:00,50.0,17.0,-100.00,West,281,8.0,14.0,27,-99.99,,,-99.99,,2013-02-12 23:41:00,
2013-02-12 15:52:00,51.0,18.0,-100.00,NW,310,8.0,12.0,27,-99.99,,,-99.99,,2013-02-12 23:52:00,
2013-02-12 16:02:00,51.0,18.0,-100.00,NW,324,8.0,14.0,27,-99.99,,,-99.99,,2013-02-13 00:02:00,
2013-02-12 16:11:00,51.0,18.0,-100.00,NW,306,8.0,12.0,27,-99.99,,,-99.99,,2013-02-13 00:11:00,
2013-02-12 16:21:00,50.0,18.0,-100.00,NW,304,10.0,13.0,28,-99.99,,,-99.99,,2013-02-13 00:21:00,
2013-02-12 16:32:00,50.0,18.0,-100.00,NW,305,9.0,13.0,28,-99.99,,,-99.99,,2013-02-13 00:32:00,
2013-02-12 16:42:00,49.0,19.0,-100.00,WNW,300,9.0,12.0,30,-99.99,,,-99.99,,2013-02-13 00:42:00,
2013-02-12 16:51:00,49.0,20.0,-100.00,WNW,299,10.0,13.0,32,-99.99,,,-99.99,,2013-02-13 00:51:00,
2013-02-12 17:01:00,48.0,20.0,-100.00,WNW,290,8.0,11.0,33,-99.99,,,-99.99,,2013-02-13 01:01:00,
2013-02-12 17:11:00,48.0,21.0,-100.00,WNW,285,9.0,12.0,34,-99.99,,,-99.99,,2013-02-13 01:11:00,
2013-02-12 17:21:00,47.0,21.0,-100.00,WNW,303,8.0,11.0,36,-99.99,,,-99.99,,2013-02-13 01:21:00,
2013-02-12 17:31:00,46.0,21.0,-100.00,WNW,300,6.0,9.0,37,-99.99,,,-99.99,,2013-02-13 01:31:00,
2013-02-12 17:42:00,46.0,22.0,-100.00,WNW,301,4.0,5.0,38,-99.99,,,-99.99,,2013-02-13 01:42:00,
2013-02-12 17:51:00,45.0,21.0,-100.00,NNW,329,4.0,5.0,38,-99.99,,,-99.99,,2013-02-13 01:51:00,
2013-02-12 18:01:00,45.0,21.0,-100.00,NNW,329,4.0,5.0,38,-99.99,,,-99.99,,2013-02-13 02:01:00,
2013-02-12 18:11:00,44.0,22.0,-100.00,NNW,331,5.0,7.0,41,-99.99,,,-99.99,,2013-02-13 02:11:00,
2013-02-12 18:21:00,43.0,23.0,-100.00,NNW,332,6.0,7.0,44,-99.99,,,-99.99,,2013-02-13 02:21:00,
2013-02-12 18:31:00,43.0,22.0,-100.00,North,5,5.0,7.0,43,-99.99,,,-99.99,,2013-02-13 02:31:00,
2013-02-12 18:41:00,44.0,23.0,-100.00,NNW,347,5.0,7.0,43,-99.99,,,-99.99,,2013-02-13 02:41:00,
2013-02-12 18:52:00,43.0,24.0,-100.00,NW,312,3.0,4.0,46,-99.99,,,-99.99,,2013-02-13 02:52:00,
2013-02-12 19:01:00,42.0,24.0,-100.00,NE,34,1.0,3.0,48,-99.99,,,-99.99,,2013-02-13 03:01:00,
2013-02-12 19:11:00,42.0,24.0,-100.00,NE,47,3.0,5.0,48,-99.99,,,-99.99,,2013-02-13 03:11:00,
2013-02-12 19:21:00,42.0,23.0,-100.00,ENE,69,2.0,4.0,47,-99.99,,,-99.99,,2013-02-13 03:21:00,
2013-02-12 19:32:00,41.0,22.0,-100.00,NE,41,1.0,4.0,47,-99.99,,,-99.99,,2013-02-13 03:32:00,
2013-02-12 19:41:00,40.0,23.0,-100.00,East,99,1.0,3.0,51,-99.99,,,-99.99,,2013-02-13 03:41:00,
2013-02-12 19:51:00,40.0,23.0,-100.00,East,93,3.0,4.0,50,-99.99,,,-99.99,,2013-02-13 03:51:00,
2013-02-12 20:01:00,40.0,23.0,-100.00,East,93,3.0,4.0,50,-99.99,,,-99.99,,2013-02-13 04:01:00,
2013-02-12 20:11:00,40.0,23.0,-100.00,East,87,3.0,4.0,51,-99.99,,,-99.99,,2013-02-13 04:11:00,
2013-02-12 20:21:00,38.0,23.0,-100.00,SE,128,3.0,5.0,55,-99.99,,,-99.99,,2013-02-13 04:21:00,
2013-02-12 20:31:00,36.0,22.0,-100.00,SE,132,4.0,5.0,57,-99.99,,,-99.99,,2013-02-13 04:31:00,
2013-02-12 20:41:00,34.0,21.0,-100.00,SE,140,5.0,8.0,58,-99.99,,,-99.99,,2013-02-13 04:41:00,
2013-02-12 20:51:00,34.0,19.0,-100.00,SE,134,7.0,11.0,54,-99.99,,,-99.99,,2013-02-13 04:51:00,
2013-02-12 21:01:00,35.0,19.0,-100.00,ESE,123,7.0,9.0,51,-99.99,,,-99.99,,2013-02-13 05:01:00,
2013-02-12 21:11:00,36.0,19.0,-100.00,ESE,121,6.0,8.0,49,-99.99,,,-99.99,,2013-02-13 05:11:00,
2013-02-12 21:22:00,35.0,17.0,-100.00,SE,136,6.0,7.0,48,-99.99,,,-99.99,,2013-02-13 05:22:00,
2013-02-12 21:31:00,35.0,17.0,-100.00,SE,128,5.0,6.0,48,-99.99,,,-99.99,,2013-02-13 05:31:00,
2013-02-12 21:41:00,34.0,17.0,-100.00,SE,135,5.0,8.0,50,-99.99,,,-99.99,,2013-02-13 05:41:00,
2013-02-12 21:52:00,33.0,16.0,-100.00,SE,128,6.0,7.0,50,-99.99,,,-99.99,,2013-02-13 05:52:00,
2013-02-12 22:01:00,33.0,16.0,-100.00,SE,128,6.0,7.0,50,-99.99,,,-99.99,,2013-02-13 06:01:00,
2013-02-12 22:11:00,35.0,18.0,-100.00,ESE,115,6.0,8.0,49,-99.99,,,-99.99,,2013-02-13 06:11:00,
2013-02-12 22:21:00,36.0,17.0,-100.00,ESE,111,5.0,7.0,45,-99.99,,,-99.99,,2013-02-13 06:21:00,
2013-02-12 22:31:00,36.0,17.0,-100.00,ESE,110,5.0,6.0,45,-99.99,,,-99.99,,2013-02-13 06:31:00,
2013-02-12 22:41:00,36.0,17.0,-100.00,ESE,110,5.0,6.0,45,-99.99,,,-99.99,,2013-02-13 06:41:00,
2013-02-12 22:51:00,36.0,16.0,-100.00,ESE,116,4.0,5.0,44,-99.99,,,-99.99,,2013-02-13 06:51:00,
2013-02-12 23:02:00,36.0,17.0,-100.00,ESE,116,5.0,6.0,45,-99.99,,,-99.99,,2013-02-13 07:02:00,
2013-02-12 23:11:00,35.0,16.0,-100.00,SE,127,5.0,6.0,46,-99.99,,,-99.99,,2013-02-13 07:11:00,
2013-02-12 23:21:00,35.0,16.0,-100.00,ESE,114,5.0,7.0,45,-99.99,,,-99.99,,2013-02-13 07:21:00,
2013-02-12 23:31:00,36.0,17.0,-100.00,ESE,111,4.0,6.0,45,-99.99,,,-99.99,,2013-02-13 07:31:00,
2013-02-12 23:41:00,37.0,16.0,-100.00,ESE,114,4.0,7.0,42,-99.99,,,-99.99,,2013-02-13 07:41:00,
2013-02-12 23:51:00,39.0,16.0,-100.00,ESE,109,4.0,9.0,39,-99.99,,,-99.99,,2013-02-13 07:51:00,